Simultaneous Nadir Overpasses (SNOs) Predictions

Prediction of SNOs between GOES-14 and NOAA-20 Satellite Orbit:

Table of predicted SNOs for the next 14.0 days since TLE Epoch: 3/19/2022
Index Date Time (GOES-14) GOES-14 Lat,Lon NOAA-20 Lat,Lon Distance(km) Time Diff (sec)
1 03/19/2022 20:21:02 -0.10,-104.44 -0.09,-104.27 18.65 80
2 03/22/2022 08:24:07 0.10,-104.56 0.24,-105.02 53.27 80
3 03/23/2022 08:08:04 0.11,-104.56 -0.79,-100.49 463.54 80
4 03/24/2022 20:30:01 -0.11,-104.44 -0.41,-105.79 153.82 80
5 03/25/2022 20:08:37 -0.11,-104.43 0.57,-101.25 361.06 80
6 03/27/2022 08:30:27 0.11,-104.52 0.54,-106.54 229.44 80
7 03/28/2022 08:14:23 0.12,-104.53 -0.43,-102.00 287.40 80
8 03/29/2022 20:36:20 -0.12,-104.44 -0.76,-107.31 326.35 80
9 03/30/2022 20:14:56 -0.12,-104.43 0.27,-102.78 188.99 80
10 04/01/2022 08:36:46 0.11,-104.51 0.90,-108.05 403.93 80
